Weather History for PATL - January, 2014

Change the Weather History Date:

Monday, January 13, 2014

  Actual Average Record
Temperature  
Mean Temperature -8 °F -  
Max Temperature 2 °F 6 °F 37 °F (2013)
Min Temperature -17 °F -1 °F -25 °F (2005)
Degree Days  
Heating Degree Days 74    
Moisture  
Dew Point -14 °F    
Average Humidity 84    
Maximum Humidity 92    
Minimum Humidity 76    
Precipitation  
Precipitation 0.00 in - - ()
Snow  
Snow 0.00 in - - ()
Snow Depth 18.00 in    
Sea Level Pressure  
Sea Level Pressure 29.50 in    
Wind  
Wind Speed 4 mph (East)    
Max Wind Speed 6 mph    
Max Gust Speed -    
Visibility 6 miles    
Events Fog , Snow    
Averages and records for this station are not official NWS values.
T = Trace of Precipitation, MM = Missing Value Source: NWS Daily Summary

Daily Weather History Graph

Daily Weather History Graph

Search for Another Location

Airport or City:

Trip Planner

Search our weather history database for the weather conditions in past years. The results will help you decide how hot, cold, wet, or windy it might be!

Date:

Astronomy

Jan. 13, 2014 Rise Set
Actual Time 10:40 AM AKST 4:25 PM AKST
Civil Twilight 9:37 AM AKST 5:28 PM AKST
Nautical Twilight 8:36 AM AKST 6:29 PM AKST
Astronomical Twilight 7:41 AM AKST 7:24 PM AKST
Moon 2:58 PM AKST (1/13) 8:30 AM AKST (1/13)
Length of Visible Light 7h 50m
Length of Day
5h 45m
Waxing Gibbous, 95% of the Moon is Illuminated
Jan 13
Waxing Gibbous
Jan 15
Full
Jan 23
Last Quarter
Jan 30
New
Feb 6
First Quarter

Hourly Weather History & Observations

Time (AKST) Temp. Windchill Dew Point Humidity Pressure Visibility Wind Dir Wind Speed Gust Speed Precip Events Conditions
12:05 AM -16.6 °F -26.8 °F -22.0 °F 76% 29.52 in 10.0 mi SSW 3.5 mph - N/A Snow Light Snow Showers
12:20 AM -16.6 °F -29.3 °F -22.0 °F 76% 29.52 in 7.0 mi SW 4.6 mph - N/A Snow Light Snow Showers
12:55 AM -17.1 °F - -21.8 °F 79% 29.53 in 10.0 mi SSW 1.2 mph - 0.00 in Snow Light Snow Showers
1:05 AM -16.6 °F - -22.0 °F 76% 29.54 in 10.0 mi WSW 2.3 mph - N/A Snow Light Snow
1:20 AM -16.6 °F - -22.0 °F 76% 29.54 in 10.0 mi SSW 2.3 mph - N/A Snow Light Snow
1:55 AM -16.6 °F - -21.1 °F 80% 29.55 in 10.0 mi SW 2.3 mph - 0.00 in Snow Light Snow Showers
2:05 AM -16.6 °F - -20.2 °F 84% 29.55 in 10.0 mi West 2.3 mph - N/A Snow Light Snow Showers
3:55 AM -14.4 °F - -18.6 °F 82% 29.55 in 9.0 mi ESE 2.3 mph - 0.00 in Snow Light Snow
4:20 AM -14.8 °F - -18.4 °F 84% 29.56 in 10.0 mi Variable 2.3 mph - N/A Snow Light Snow
4:50 AM -14.8 °F - -20.2 °F 77% 29.56 in 10.0 mi Variable 2.3 mph - N/A Snow Light Snow
4:55 AM -15.5 °F - -19.7 °F 82% 29.55 in 7.0 mi Variable 2.3 mph - 0.00 in Snow Light Snow
5:20 AM -14.8 °F -29.1 °F -18.4 °F 84% 29.55 in 2.0 mi ENE 5.8 mph - N/A Snow Light Snow
5:35 AM -13.0 °F -27.0 °F -18.4 °F 77% 29.55 in 1.5 mi ENE 5.8 mph - N/A Snow Light Snow
5:50 AM -13.0 °F -27.0 °F -16.6 °F 84% 29.55 in 2.5 mi East 5.8 mph - N/A Snow Light Snow
5:55 AM -13.2 °F -27.2 °F -17.1 °F 82% 29.55 in 3.0 mi East 5.8 mph - 0.00 in Snow Light Snow
6:05 AM -13.0 °F -25.1 °F -16.6 °F 84% 29.55 in 1.5 mi East 4.6 mph - N/A Snow Light Snow
6:20 AM -13.0 °F -25.1 °F -16.6 °F 84% 29.55 in 2.5 mi ENE 4.6 mph - N/A Snow Light Snow
6:35 AM -11.2 °F -24.8 °F -14.8 °F 84% 29.55 in 3.0 mi ENE 5.8 mph - N/A Snow Light Snow
6:50 AM -11.2 °F -24.8 °F -14.8 °F 84% 29.54 in 2.5 mi Variable 5.8 mph - N/A Snow Light Snow
6:55 AM -10.8 °F -24.4 °F -15.7 °F 79% 29.55 in 2.0 mi East 5.8 mph - 0.00 in Snow Light Snow
7:05 AM -13.0 °F -22.7 °F -18.4 °F 77% 29.55 in 4.0 mi East 3.5 mph - N/A Snow Light Snow
7:20 AM -11.2 °F -24.8 °F -14.8 °F 84% 29.55 in 2.0 mi Variable 5.8 mph - N/A Snow Light Snow
7:41 AM -11.2 °F -23.0 °F -14.8 °F 84% 29.55 in 9.0 mi East 4.6 mph - N/A Snow Light Snow
7:55 AM -13.0 °F -22.7 °F -16.6 °F 84% 29.55 in 2.5 mi ENE 3.5 mph - N/A Snow Light Snow
8:55 AM -11.2 °F -20.6 °F -14.8 °F 84% 29.56 in 8.0 mi ENE 3.5 mph - N/A Snow Light Snow
9:55 AM -11.2 °F -20.6 °F -14.8 °F 84% 29.57 in 2.5 mi East 3.5 mph - N/A Snow Light Snow
10:02 AM -11.2 °F -20.6 °F -14.8 °F 84% 29.57 in 3.0 mi Variable 3.5 mph - N/A Snow Light Snow
10:18 AM -11.2 °F -20.6 °F -14.8 °F 84% 29.57 in 1.0 mi East 3.5 mph - N/A Snow Light Snow
10:34 AM -11.2 °F -20.6 °F -14.8 °F 84% 29.57 in 0.8 mi ESE 3.5 mph - N/A Snow Light Snow
10:50 AM -11.2 °F - -14.8 °F 84% 29.57 in 2.0 mi East 2.3 mph - N/A Snow Light Snow
10:56 AM -11.2 °F -20.6 °F -14.8 °F 84% 29.57 in 2.0 mi East 3.5 mph - N/A Snow Light Snow
11:06 AM -11.2 °F -20.6 °F -14.8 °F 84% 29.57 in 3.0 mi Variable 3.5 mph - N/A Snow Light Snow
11:22 AM -11.2 °F -20.6 °F -14.8 °F 84% 29.57 in 2.0 mi ESE 3.5 mph - N/A Snow Light Snow
11:40 AM -11.2 °F -20.6 °F -14.8 °F 84% 29.57 in 1.8 mi Variable 3.5 mph - N/A Snow Light Snow
11:55 AM -11.2 °F -20.6 °F -14.8 °F 84% 29.58 in 0.5 mi Variable 3.5 mph - N/A Fog , Snow Snow
12:55 PM -11.2 °F - -13.0 °F 92% 29.57 in 1.5 mi East 2.3 mph - N/A Snow Light Snow
1:21 PM -9.4 °F - -13.0 °F 84% 29.56 in 10.0 mi Variable 2.3 mph - N/A Snow Light Snow
1:44 PM -9.4 °F -18.6 °F -13.0 °F 84% 29.56 in 12.0 mi Variable 3.5 mph - N/A   Overcast
1:55 PM -9.4 °F -18.6 °F -13.0 °F 84% 29.55 in 12.0 mi East 3.5 mph - N/A Snow Light Snow Showers
2:55 PM -9.4 °F -18.6 °F -13.0 °F 84% 29.53 in 10.0 mi East 3.5 mph - N/A Snow Light Snow Showers
3:55 PM -8.7 °F -20.0 °F -12.3 °F 84% 29.51 in 6.0 mi East 4.6 mph - 0.00 in Snow Light Snow Showers
4:55 PM -9.0 °F - -12.3 °F 86% 29.49 in 10.0 mi Variable 2.3 mph - 0.00 in Snow Light Snow Showers
5:55 PM -8.7 °F - -11.9 °F 86% 29.48 in 5.0 mi ESE 2.3 mph - 0.00 in Snow Light Snow Showers
6:55 PM -8.5 °F - -11.9 °F 85% 29.44 in 2.0 mi Variable 1.2 mph - 0.00 in Snow Light Snow Showers
6:58 PM -7.6 °F - -11.2 °F 84% 29.44 in 1.8 mi Variable 1.2 mph - N/A Snow Light Snow Showers
7:13 PM -7.6 °F - -11.2 °F 84% 29.43 in 10.0 mi Variable 1.2 mph - N/A Snow Light Snow Showers
7:28 PM -7.6 °F - -11.2 °F 84% 29.43 in 3.0 mi South 2.3 mph - N/A Snow Light Snow Showers
7:43 PM -5.8 °F -16.7 °F -9.4 °F 84% 29.41 in 4.0 mi ENE 4.6 mph - N/A Snow Light Snow Showers
7:55 PM -6.5 °F -19.3 °F -9.0 °F 89% 29.40 in 7.0 mi ENE 5.8 mph - 0.00 in Snow Light Snow
8:55 PM -4.2 °F - -6.9 °F 88% 29.38 in 5.0 mi Variable 1.2 mph - 0.00 in Snow Light Snow
9:28 PM -0.4 °F -10.4 °F -4.0 °F 85% 29.34 in 4.0 mi East 4.6 mph - N/A Snow Light Snow
9:55 PM -2.4 °F -10.6 °F -5.1 °F 88% 29.33 in 10.0 mi ENE 3.5 mph - 0.00 in Snow Light Snow
10:13 PM -2.2 °F -10.4 °F -5.8 °F 85% 29.32 in 10.0 mi East 3.5 mph - N/A   Mostly Cloudy
10:43 PM -0.4 °F -12.0 °F -2.2 °F 92% 29.30 in 10.0 mi ESE 5.8 mph - N/A Snow Light Snow Showers
10:55 PM -2.9 °F -15.0 °F -6.0 °F 87% 29.29 in 10.0 mi ESE 5.8 mph - 0.00 in Snow Light Snow Showers
10:58 PM -2.2 °F -10.4 °F -5.8 °F 85% 29.29 in 10.0 mi East 3.5 mph - N/A   Overcast
11:55 PM -0.4 °F -10.4 °F -2.7 °F 90% 29.24 in 10.0 mi East 4.6 mph - N/A   Overcast